Simultaneous Nadir Overpasses (SNOs) Predictions

Prediction of SNOs between NOAA-19 and TERRA Satellite Orbit:

Table of predicted SNOs for the next 14.0 days since TLE Epoch: 8/31/2019
Index Date (NOAA-19) Time (NOAA-19) Lat,Lon (NOAA-19) SZA (NOAA-19 ) Date (TERRA) Time (TERRA) Lat,Lon (TERRA) SZA (TERRA ) Distance(km) Time Diff (sec)
1 08/31/2019 02:21:14 78.72, 167.98 70.83 08/31/2019 02:22:21 78.74, 168.01 70.87 2.36 67
2 08/31/2019 03:12:08 -78.70, -24.63 109.17 08/31/2019 03:11:49 -78.69, -24.59 109.18 1.35 19
3 09/02/2019 08:45:37 78.70, 72.11 71.66 09/02/2019 08:45:31 78.73, 72.16 71.69 3.43 6
4 09/04/2019 14:18:55 -78.72, 168.72 107.50 09/04/2019 14:19:15 -78.72, 168.66 107.50 1.47 20
5 09/04/2019 15:09:53 78.44, -22.10 72.43 09/04/2019 15:08:46 78.51, -24.82 72.23 60.87 67
6 09/06/2019 19:52:24 78.73, -94.63 73.36 09/06/2019 19:52:57 78.74, -94.63 73.38 1.25 33
7 09/06/2019 20:43:18 -78.70, 72.86 106.65 09/06/2019 20:42:25 -78.70, 72.80 106.67 1.34 53
8 09/09/2019 01:25:42 -78.74, 2.06 105.79 09/09/2019 01:26:40 -78.77, 2.10 105.74 3.54 58
9 09/09/2019 02:16:47 78.72, 169.44 74.22 09/09/2019 02:16:07 78.73, 169.49 74.22 1.33 40
10 09/11/2019 06:59:11 78.77, 98.56 75.09 09/11/2019 07:00:23 78.75, 98.54 75.09 2.59 72
11 09/11/2019 07:50:05 -78.72, -93.80 104.92 09/11/2019 07:49:50 -78.76, -93.78 104.89 4.00 15
12 09/13/2019 13:23:34 78.76, 2.60 75.97 09/13/2019 13:23:33 78.73, 2.64 75.94 4.13 1




NCC Satellite Simultaneous Nadir Overpasses (SNOs) Prediction Service
